Tracking 31027 objects as of 19-Jul-2025
HD Live streaming from Space Station
objects crossing your sky now

OBJECT B

Track OBJECT B now!
10-day predictions


NORAD ID: 57425
Int'l Code: 2023-104B
Perigee: 410.1 km
Apogee: 420.2 km
Inclination: 97.3 °
Period: 92.7 minutes
Semi major axis: 6786 km
RCS: Unknown
Launch date: July 23, 2023
Source: People's Republic of China (PRC)
Launch site: Taiyaun Space Center, China (TSC)
Your satellite tracking list
CZ-4C DEB
Track 1 satellite(s)




NASA's NSSDC Master Catalog

Two Line Element Set (TLE):
1 57425U 23104B   25199.86061007  .00026098  00000-0  41934-3 0  9996
2 57425  97.3045 274.8634 0007435 198.5249 161.5735 15.52971548111451
Source of the keplerian elements: AFSPC